Time,TemperatureF,DewpointF,PressureIn,WindDirection,WindDirectionDegrees,WindSpeedMPH,WindSpeedGustMPH,Humidity,HourlyPrecipIn,Conditions,Clouds,dailyrainin,SoftwareType,DateUTC
2013-01-23 00:03:00,36.0,-2.0,-100.00,WNW,285,21.0,28.0,19,0.00,,,-99.99,,2013-01-23 00:03:00,
2013-01-23 00:12:00,36.0,-1.0,-100.00,WNW,285,21.0,28.0,20,0.00,,,-99.99,,2013-01-23 00:12:00,
2013-01-23 00:22:00,35.0,-1.0,-100.00,WNW,285,17.0,23.0,21,0.00,,,-99.99,,2013-01-23 00:22:00,
2013-01-23 00:33:00,34.0,0.0,-100.00,WNW,284,15.0,21.0,23,0.00,,,-99.99,,2013-01-23 00:33:00,
2013-01-23 00:42:00,34.0,-1.0,-100.00,WNW,284,14.0,18.0,22,0.00,,,-99.99,,2013-01-23 00:42:00,
2013-01-23 00:52:00,34.0,-3.0,-100.00,WNW,285,15.0,21.0,20,0.00,,,-99.99,,2013-01-23 00:52:00,
2013-01-23 01:03:00,33.0,-2.0,-100.00,WNW,285,13.0,17.0,21,0.00,,,-99.99,,2013-01-23 01:03:00,
2013-01-23 01:13:00,33.0,-2.0,-100.00,WNW,285,12.0,16.0,22,0.00,,,-99.99,,2013-01-23 01:13:00,
2013-01-23 01:22:00,33.0,-4.0,-100.00,WNW,285,12.0,18.0,19,0.00,,,-99.99,,2013-01-23 01:22:00,
2013-01-23 01:33:00,33.0,-6.0,-100.00,WNW,285,14.0,20.0,18,0.00,,,-99.99,,2013-01-23 01:33:00,
2013-01-23 01:52:00,32.0,-5.0,-100.00,WNW,284,11.0,16.0,19,0.00,,,-99.99,,2013-01-23 01:52:00,
2013-01-23 02:03:00,31.0,-5.0,-100.00,WNW,285,13.0,16.0,19,0.00,,,-99.99,,2013-01-23 02:03:00,
2013-01-23 02:12:00,32.0,-6.0,-100.00,WNW,285,13.0,17.0,19,0.00,,,-99.99,,2013-01-23 02:12:00,
2013-01-23 02:23:00,29.0,-5.0,-100.00,WNW,285,9.0,13.0,22,0.00,,,-99.99,,2013-01-23 02:23:00,
2013-01-23 02:33:00,31.0,-6.0,-100.00,WNW,285,9.0,12.0,20,0.00,,,-99.99,,2013-01-23 02:33:00,
2013-01-23 02:42:00,30.0,-6.0,-100.00,WNW,284,9.0,12.0,20,0.00,,,-99.99,,2013-01-23 02:42:00,
2013-01-23 02:53:00,31.0,-7.0,-100.00,WNW,284,9.0,10.0,19,0.00,,,-99.99,,2013-01-23 02:53:00,
2013-01-23 03:03:00,31.0,-8.0,-100.00,WNW,285,9.0,11.0,18,0.00,,,-99.99,,2013-01-23 03:03:00,
2013-01-23 03:12:00,30.0,-7.0,-100.00,WNW,285,9.0,11.0,19,0.00,,,-99.99,,2013-01-23 03:12:00,
2013-01-23 03:23:00,31.0,-8.0,-100.00,WNW,285,11.0,13.0,18,0.00,,,-99.99,,2013-01-23 03:23:00,
2013-01-23 03:32:00,30.0,-8.0,-100.00,WNW,284,10.0,12.0,18,0.00,,,-99.99,,2013-01-23 03:32:00,
2013-01-23 03:42:00,31.0,-8.0,-100.00,WNW,285,10.0,12.0,18,0.00,,,-99.99,,2013-01-23 03:42:00,
2013-01-23 03:52:00,32.0,-9.0,-100.00,WNW,285,11.0,15.0,16,0.00,,,-99.99,,2013-01-23 03:52:00,
2013-01-23 04:03:00,33.0,-10.0,-100.00,WNW,285,14.0,19.0,15,0.00,,,-99.99,,2013-01-23 04:03:00,
2013-01-23 04:12:00,33.0,-10.0,-100.00,WNW,285,16.0,20.0,15,0.00,,,-99.99,,2013-01-23 04:12:00,
2013-01-23 04:22:00,33.0,-11.0,-100.00,WNW,285,17.0,22.0,14,0.00,,,-99.99,,2013-01-23 04:22:00,
2013-01-23 04:32:00,33.0,-11.0,-100.00,WNW,285,16.0,21.0,14,0.00,,,-99.99,,2013-01-23 04:32:00,
2013-01-23 04:43:00,33.0,-11.0,-100.00,WNW,285,16.0,19.0,14,0.00,,,-99.99,,2013-01-23 04:43:00,
2013-01-23 04:52:00,33.0,-12.0,-100.00,WNW,285,16.0,22.0,13,0.00,,,-99.99,,2013-01-23 04:52:00,
2013-01-23 05:03:00,33.0,-11.0,-100.00,WNW,285,15.0,19.0,14,0.00,,,-99.99,,2013-01-23 05:03:00,
2013-01-23 05:12:00,33.0,-11.0,-100.00,WNW,285,14.0,18.0,14,0.00,,,-99.99,,2013-01-23 05:12:00,
2013-01-23 05:22:00,33.0,-12.0,-100.00,WNW,285,11.0,15.0,14,0.00,,,-99.99,,2013-01-23 05:22:00,
2013-01-23 05:33:00,33.0,-12.0,-100.00,WNW,285,11.0,16.0,13,0.00,,,-99.99,,2013-01-23 05:33:00,
2013-01-23 05:43:00,33.0,-12.0,-100.00,WNW,285,9.0,14.0,13,0.00,,,-99.99,,2013-01-23 05:43:00,
2013-01-23 05:52:00,32.0,-12.0,-100.00,WNW,285,7.0,11.0,14,0.00,,,-99.99,,2013-01-23 05:52:00,
2013-01-23 06:02:00,33.0,-12.0,-100.00,WNW,285,7.0,10.0,13,0.00,,,-99.99,,2013-01-23 06:02:00,
2013-01-23 06:12:00,33.0,-12.0,-100.00,WNW,285,7.0,12.0,13,0.00,,,-99.99,,2013-01-23 06:12:00,
2013-01-23 06:22:00,32.0,-12.0,-100.00,WNW,285,9.0,12.0,14,0.00,,,-99.99,,2013-01-23 06:22:00,
2013-01-23 06:32:00,32.0,-12.0,-100.00,WNW,285,9.0,12.0,14,0.00,,,-99.99,,2013-01-23 06:32:00,
2013-01-23 06:42:00,32.0,-12.0,-100.00,WNW,285,11.0,15.0,14,0.00,,,-99.99,,2013-01-23 06:42:00,
2013-01-23 06:52:00,31.0,-11.0,-100.00,WNW,285,12.0,16.0,15,0.00,,,-99.99,,2013-01-23 06:52:00,
2013-01-23 07:02:00,31.0,-12.0,-100.00,WNW,285,12.0,14.0,14,0.00,,,-99.99,,2013-01-23 07:02:00,
2013-01-23 07:12:00,31.0,-12.0,-100.00,WNW,285,12.0,14.0,15,0.00,,,-99.99,,2013-01-23 07:12:00,
2013-01-23 07:22:00,33.0,-12.0,-100.00,WNW,284,14.0,20.0,13,0.00,,,-99.99,,2013-01-23 07:22:00,
2013-01-23 07:33:00,33.0,-12.0,-100.00,WNW,285,14.0,19.0,14,0.00,,,-99.99,,2013-01-23 07:33:00,
2013-01-23 07:42:00,32.0,-12.0,-100.00,WNW,285,14.0,21.0,14,0.00,,,-99.99,,2013-01-23 07:42:00,
2013-01-23 07:52:00,33.0,-12.0,-100.00,WNW,285,15.0,22.0,14,0.00,,,-99.99,,2013-01-23 07:52:00,
2013-01-23 08:02:00,32.0,-11.0,-100.00,WNW,285,14.0,21.0,14,0.00,,,-99.99,,2013-01-23 08:02:00,
2013-01-23 08:12:00,32.0,-11.0,-100.00,WNW,284,14.0,19.0,15,0.00,,,-99.99,,2013-01-23 08:12:00,
2013-01-23 08:22:00,32.0,-11.0,-100.00,WNW,285,15.0,22.0,14,0.00,,,-99.99,,2013-01-23 08:22:00,
2013-01-23 08:33:00,33.0,-12.0,-100.00,WNW,285,18.0,24.0,14,0.00,,,-99.99,,2013-01-23 08:33:00,
2013-01-23 08:42:00,32.0,-11.0,-100.00,WNW,285,17.0,23.0,14,0.00,,,-99.99,,2013-01-23 08:42:00,
2013-01-23 08:52:00,32.0,-11.0,-100.00,WNW,285,17.0,24.0,15,0.00,,,-99.99,,2013-01-23 08:52:00,
2013-01-23 09:02:00,33.0,-11.0,-100.00,WNW,285,15.0,20.0,14,0.00,,,-99.99,,2013-01-23 09:02:00,
2013-01-23 09:12:00,33.0,-11.0,-100.00,WNW,285,16.0,21.0,14,0.00,,,-99.99,,2013-01-23 09:12:00,
2013-01-23 09:22:00,32.0,-11.0,-100.00,WNW,285,15.0,23.0,15,0.00,,,-99.99,,2013-01-23 09:22:00,
2013-01-23 09:32:00,32.0,-11.0,-100.00,WNW,285,14.0,19.0,14,0.00,,,-99.99,,2013-01-23 09:32:00,
2013-01-23 09:43:00,32.0,-11.0,-100.00,WNW,285,14.0,19.0,14,0.00,,,-99.99,,2013-01-23 09:43:00,
2013-01-23 09:52:00,32.0,-12.0,-100.00,WNW,285,13.0,20.0,14,0.00,,,-99.99,,2013-01-23 09:52:00,
2013-01-23 10:02:00,32.0,-12.0,-100.00,WNW,285,13.0,18.0,14,0.00,,,-99.99,,2013-01-23 10:02:00,
2013-01-23 10:12:00,32.0,-12.0,-100.00,WNW,285,13.0,19.0,14,0.00,,,-99.99,,2013-01-23 10:12:00,
2013-01-23 10:22:00,32.0,-12.0,-100.00,WNW,285,16.0,22.0,14,0.00,,,-99.99,,2013-01-23 10:22:00,
2013-01-23 10:32:00,31.0,-12.0,-100.00,WNW,285,16.0,23.0,15,0.00,,,-99.99,,2013-01-23 10:32:00,
2013-01-23 10:42:00,31.0,-11.0,-100.00,WNW,285,17.0,26.0,15,0.00,,,-99.99,,2013-01-23 10:42:00,
2013-01-23 10:52:00,30.0,-9.0,-100.00,WNW,284,17.0,25.0,17,0.00,,,-99.99,,2013-01-23 10:52:00,
2013-01-23 11:02:00,30.0,-9.0,-100.00,WNW,285,16.0,26.0,18,0.00,,,-99.99,,2013-01-23 11:02:00,
2013-01-23 11:12:00,30.0,-10.0,-100.00,WNW,285,16.0,24.0,17,0.00,,,-99.99,,2013-01-23 11:12:00,
2013-01-23 11:22:00,30.0,-9.0,-100.00,WNW,285,19.0,27.0,17,0.00,,,-99.99,,2013-01-23 11:22:00,
2013-01-23 11:33:00,31.0,-10.0,-100.00,WNW,285,17.0,24.0,16,0.00,,,-99.99,,2013-01-23 11:33:00,
2013-01-23 11:42:00,31.0,-11.0,-100.00,WNW,285,17.0,24.0,16,0.00,,,-99.99,,2013-01-23 11:42:00,
2013-01-23 11:52:00,31.0,-8.0,-100.00,WNW,285,19.0,24.0,18,0.00,,,-99.99,,2013-01-23 11:52:00,
2013-01-23 12:03:00,31.0,-8.0,-100.00,WNW,285,20.0,26.0,17,0.00,,,-99.99,,2013-01-23 12:03:00,
2013-01-23 12:12:00,31.0,-8.0,-100.00,WNW,285,20.0,26.0,18,0.00,,,-99.99,,2013-01-23 12:12:00,
2013-01-23 12:22:00,31.0,-8.0,-100.00,WNW,285,18.0,26.0,17,0.00,,,-99.99,,2013-01-23 12:22:00,
2013-01-23 12:33:00,31.0,-7.0,-100.00,WNW,285,14.0,21.0,19,0.00,,,-99.99,,2013-01-23 12:33:00,
2013-01-23 12:43:00,32.0,-8.0,-100.00,WNW,284,17.0,26.0,17,0.00,,,-99.99,,2013-01-23 12:43:00,
2013-01-23 12:52:00,32.0,-8.0,-100.00,WNW,285,19.0,28.0,17,0.00,,,-99.99,,2013-01-23 12:52:00,
2013-01-23 13:03:00,33.0,-7.0,-100.00,WNW,285,21.0,32.0,18,0.00,,,-99.99,,2013-01-23 13:03:00,
2013-01-23 13:12:00,32.0,-8.0,-100.00,WNW,285,19.0,29.0,17,0.00,,,-99.99,,2013-01-23 13:12:00,
2013-01-23 13:23:00,33.0,-7.0,-100.00,WNW,285,22.0,29.0,17,0.00,,,-99.99,,2013-01-23 13:23:00,
2013-01-23 13:33:00,33.0,-6.0,-100.00,WNW,285,23.0,32.0,17,0.00,,,-99.99,,2013-01-23 13:33:00,
2013-01-23 13:42:00,34.0,-7.0,-100.00,WNW,285,22.0,29.0,16,0.00,,,-99.99,,2013-01-23 13:42:00,
2013-01-23 13:52:00,33.0,-7.0,-100.00,WNW,285,21.0,29.0,17,0.00,,,-99.99,,2013-01-23 13:52:00,
2013-01-23 14:02:00,34.0,-7.0,-100.00,WNW,285,23.0,34.0,17,0.00,,,-99.99,,2013-01-23 14:02:00,
2013-01-23 14:12:00,34.0,-6.0,-100.00,WNW,285,24.0,34.0,17,0.00,,,-99.99,,2013-01-23 14:12:00,
2013-01-23 14:23:00,34.0,-6.0,-100.00,WNW,285,21.0,29.0,17,0.00,,,-99.99,,2013-01-23 14:23:00,
2013-01-23 14:33:00,34.0,-7.0,-100.00,WNW,285,21.0,29.0,16,0.00,,,-99.99,,2013-01-23 14:33:00,
2013-01-23 14:42:00,34.0,-6.0,-100.00,WNW,285,22.0,29.0,17,0.00,,,-99.99,,2013-01-23 14:42:00,
2013-01-23 14:53:00,34.0,-6.0,-100.00,WNW,285,21.0,28.0,17,0.00,,,-99.99,,2013-01-23 14:53:00,
2013-01-23 15:03:00,34.0,-5.0,-100.00,WNW,285,21.0,28.0,18,0.00,,,-99.99,,2013-01-23 15:03:00,
2013-01-23 15:12:00,34.0,-6.0,-100.00,WNW,285,19.0,26.0,17,0.00,,,-99.99,,2013-01-23 15:12:00,
2013-01-23 15:22:00,34.0,-5.0,-100.00,WNW,285,18.0,26.0,18,0.00,,,-99.99,,2013-01-23 15:22:00,
2013-01-23 15:33:00,35.0,-5.0,-100.00,WNW,285,19.0,26.0,18,0.00,,,-99.99,,2013-01-23 15:33:00,
2013-01-23 15:43:00,36.0,-5.0,-100.00,WNW,285,20.0,27.0,17,0.00,,,-99.99,,2013-01-23 15:43:00,
2013-01-23 15:52:00,36.0,-5.0,-100.00,WNW,285,20.0,26.0,16,0.00,,,-99.99,,2013-01-23 15:52:00,
2013-01-23 16:03:00,36.0,-5.0,-100.00,WNW,284,21.0,29.0,17,0.00,,,-99.99,,2013-01-23 16:03:00,
2013-01-23 16:12:00,36.0,-5.0,-100.00,WNW,284,21.0,27.0,17,0.00,,,-99.99,,2013-01-23 16:12:00,
2013-01-23 16:23:00,36.0,-3.0,-100.00,WNW,285,21.0,28.0,18,0.00,,,-99.99,,2013-01-23 16:23:00,
2013-01-23 16:32:00,38.0,-3.0,-100.00,WNW,285,21.0,29.0,17,0.00,,,-99.99,,2013-01-23 16:32:00,
2013-01-23 16:42:00,38.0,-3.0,-100.00,WNW,285,19.0,24.0,18,0.00,,,-99.99,,2013-01-23 16:42:00,
2013-01-23 16:52:00,38.0,-3.0,-100.00,WNW,285,19.0,26.0,17,0.00,,,-99.99,,2013-01-23 16:52:00,
2013-01-23 17:03:00,38.0,-1.0,-100.00,WNW,285,19.0,25.0,19,0.00,,,-99.99,,2013-01-23 17:03:00,
2013-01-23 17:22:00,38.0,-3.0,-100.00,WNW,285,19.0,26.0,17,0.00,,,-99.99,,2013-01-23 17:22:00,
2013-01-23 17:33:00,39.0,-1.0,-100.00,WNW,285,17.0,24.0,18,0.00,,,-99.99,,2013-01-23 17:33:00,
2013-01-23 17:42:00,39.0,-1.0,-100.00,WNW,285,18.0,23.0,17,0.00,,,-99.99,,2013-01-23 17:42:00,
2013-01-23 17:52:00,40.0,-3.0,-100.00,WNW,285,21.0,29.0,16,0.00,,,-99.99,,2013-01-23 17:52:00,
2013-01-23 18:03:00,40.0,-2.0,-100.00,WNW,285,21.0,28.0,16,0.00,,,-99.99,,2013-01-23 18:03:00,
2013-01-23 18:12:00,40.0,-2.0,-100.00,WNW,285,21.0,28.0,16,0.00,,,-99.99,,2013-01-23 18:12:00,
2013-01-23 18:23:00,41.0,0.0,-100.00,WNW,285,19.0,26.0,17,0.00,,,-99.99,,2013-01-23 18:23:00,
2013-01-23 18:33:00,42.0,-1.0,-100.00,WNW,285,20.0,27.0,16,0.00,,,-99.99,,2013-01-23 18:33:00,
2013-01-23 18:43:00,42.0,0.0,-100.00,WNW,285,23.0,35.0,17,0.00,,,-99.99,,2013-01-23 18:43:00,
2013-01-23 18:52:00,42.0,-1.0,-100.00,WNW,285,23.0,32.0,16,0.00,,,-99.99,,2013-01-23 18:52:00,
2013-01-23 19:03:00,42.0,0.0,-100.00,WNW,285,26.0,36.0,17,0.00,,,-99.99,,2013-01-23 19:03:00,
2013-01-23 19:13:00,44.0,2.0,-100.00,WNW,285,25.0,35.0,17,0.00,,,-99.99,,2013-01-23 19:13:00,
2013-01-23 19:23:00,44.0,2.0,-100.00,WNW,284,28.0,37.0,17,0.00,,,-99.99,,2013-01-23 19:23:00,
2013-01-23 19:33:00,44.0,0.0,-100.00,WNW,285,29.0,39.0,15,0.00,,,-99.99,,2013-01-23 19:33:00,
2013-01-23 19:43:00,44.0,-1.0,-100.00,WNW,285,28.0,36.0,15,0.00,,,-99.99,,2013-01-23 19:43:00,
2013-01-23 19:52:00,44.0,-1.0,-100.00,WNW,285,28.0,35.0,15,0.00,,,-99.99,,2013-01-23 19:52:00,
2013-01-23 20:03:00,44.0,1.0,-100.00,WNW,285,27.0,33.0,16,0.00,,,-99.99,,2013-01-23 20:03:00,
2013-01-23 20:12:00,45.0,0.0,-100.00,WNW,285,27.0,32.0,15,0.00,,,-99.99,,2013-01-23 20:12:00,
2013-01-23 20:23:00,44.0,-1.0,-100.00,WNW,285,27.0,34.0,15,0.00,,,-99.99,,2013-01-23 20:23:00,
2013-01-23 20:33:00,44.0,1.0,-100.00,WNW,285,26.0,34.0,16,0.00,,,-99.99,,2013-01-23 20:33:00,
2013-01-23 20:42:00,44.0,0.0,-100.00,WNW,285,28.0,34.0,16,0.00,,,-99.99,,2013-01-23 20:42:00,
2013-01-23 20:53:00,44.0,0.0,-100.00,WNW,285,27.0,35.0,16,0.00,,,-99.99,,2013-01-23 20:53:00,
2013-01-23 21:03:00,44.0,1.0,-100.00,WNW,284,25.0,31.0,16,0.00,,,-99.99,,2013-01-23 21:03:00,
2013-01-23 21:12:00,44.0,2.0,-100.00,WNW,285,22.0,28.0,17,0.00,,,-99.99,,2013-01-23 21:12:00,
2013-01-23 21:22:00,44.0,1.0,-100.00,WNW,285,18.0,24.0,16,0.00,,,-99.99,,2013-01-23 21:22:00,
2013-01-23 21:33:00,45.0,2.0,-100.00,WNW,285,17.0,23.0,17,0.00,,,-99.99,,2013-01-23 21:33:00,
2013-01-23 21:42:00,44.0,2.0,-100.00,WNW,284,17.0,23.0,17,0.00,,,-99.99,,2013-01-23 21:42:00,
2013-01-23 21:52:00,44.0,3.0,-100.00,WNW,285,17.0,21.0,18,0.00,,,-99.99,,2013-01-23 21:52:00,
2013-01-23 22:02:00,43.0,4.0,-100.00,WNW,285,16.0,23.0,19,0.00,,,-99.99,,2013-01-23 22:02:00,
2013-01-23 22:12:00,43.0,3.0,-100.00,WNW,285,16.0,23.0,19,0.00,,,-99.99,,2013-01-23 22:12:00,
2013-01-23 22:23:00,43.0,2.0,-100.00,WNW,285,17.0,27.0,18,0.00,,,-99.99,,2013-01-23 22:23:00,
2013-01-23 22:33:00,43.0,2.0,-100.00,WNW,285,19.0,27.0,18,0.00,,,-99.99,,2013-01-23 22:33:00,
2013-01-23 22:42:00,43.0,4.0,-100.00,WNW,285,22.0,29.0,20,0.00,,,-99.99,,2013-01-23 22:42:00,
2013-01-23 22:52:00,42.0,4.0,-100.00,WNW,285,22.0,31.0,20,0.00,,,-99.99,,2013-01-23 22:52:00,
2013-01-23 23:03:00,41.0,5.0,-100.00,WNW,285,19.0,27.0,22,0.00,,,-99.99,,2013-01-23 23:03:00,
2013-01-23 23:12:00,41.0,5.0,-100.00,WNW,285,19.0,27.0,22,0.00,,,-99.99,,2013-01-23 23:12:00,
2013-01-23 23:22:00,40.0,6.0,-100.00,WNW,285,19.0,25.0,24,0.00,,,-99.99,,2013-01-23 23:22:00,
2013-01-23 23:33:00,41.0,6.0,-100.00,WNW,285,20.0,26.0,23,0.00,,,-99.99,,2013-01-23 23:33:00,
2013-01-23 23:42:00,41.0,5.0,-100.00,WNW,285,17.0,26.0,22,0.00,,,-99.99,,2013-01-23 23:42:00,
2013-01-23 23:52:00,40.0,5.0,-100.00,WNW,285,14.0,21.0,23,0.00,,,-99.99,,2013-01-23 23:52:00,